Theta_e
316 322 322 323 324 325 326 327 327 327 328 322 319 318 319 320 317 317 319 322 322 320 319 319 320 320 320 320 320 321 320 320 319 318 324 338 328 320 328 329 333 336 340 344 339 335 337 336 337 340 341 342 341 342 341 341 340 339 338 338 339 338 338 338 338 337 338 339 339 339 339 339 339 339 339 339 339 338 339 338 339 339 340 340 340 340 340 340 339 338 337 336 333 331 330 328 324
319 325 324 325 325 324 328 327 323 322 323 318 317 317 317 320 319 319 321 321 321 320 320 319 320 320 320 320 319 320 320 321 320 322 330 332 324 324 328 327 332 334 340 344 339 335 336 337 337 339 340 341 342 341 341 341 340 339 338 338 338 338 338 339 338 337 339 339 339 340 340 340 339 339 339 339 338 338 338 338 339 339 339 339 340 339 340 339 338 337 336 336 336 334 332 330 325
316 322 324 325 326 325 327 325 323 320 319 315 314 319 319 320 319 320 321 320 321 319 320 319 321 320 320 320 320 322 321 322 320 322 329 328 330 329 324 325 332 334 339 344 340 335 336 337 337 339 340 340 341 341 341 340 340 339 338 338 338 339 338 338 339 338 339 340 340 340 340 341 340 340 339 339 337 337 338 338 339 338 339 339 339 338 338 337 336 336 334 335 336 336 334 332 328
314 321 324 324 327 327 328 326 326 322 317 315 313 319 321 319 320 320 319 320 321 319 320 320 321 320 320 321 320 322 321 322 320 320 329 329 332 330 322 322 330 335 338 344 342 336 336 337 337 338 339 339 341 341 341 340 340 338 338 338 338 339 338 338 339 339 340 340 341 340 341 340 340 339 338 338 336 336 336 337 338 338 338 338 337 337 336 335 334 334 333 333 335 336 335 334 329
318 325 324 323 328 327 328 325 324 320 316 317 314 319 321 319 320 320 320 320 321 320 320 320 321 320 320 321 320 321 321 324 321 319 328 329 329 329 324 321 328 336 337 343 342 337 336 336 337 338 338 339 340 341 341 341 340 338 337 337 338 337 337 338 339 340 340 340 341 340 340 340 339 338 337 337 335 334 334 334 335 336 336 336 336 334 333 333 332 332 332 332 333 334 333 331 324
323 326 323 321 327 324 325 321 319 318 319 322 317 319 319 318 320 320 320 320 321 321 320 320 320 321 320 321 320 321 324 324 322 323 327 328 326 325 324 320 327 336 336 341 343 339 338 337 337 337 338 339 339 341 341 341 340 339 337 337 338 337 337 339 339 340 340 341 341 341 340 340 339 337 337 335 334 333 333 333 332 333 333 334 334 333 331 331 330 330 330 328 327 327 324 320 314
323 327 326 323 325 322 322 320 320 320 319 323 318 318 319 318 319 319 320 320 321 320 319 320 319 320 321 321 321 321 323 322 324 328 325 324 322 321 323 321 325 335 336 338 342 341 339 338 337 337 338 339 339 341 341 340 340 339 338 338 338 338 338 339 340 340 340 341 340 341 340 339 338 337 336 334 334 332 332 332 331 332 331 331 332 332 330 329 329 328 328 325 321 319 315 311 307
322 327 327 324 325 324 323 322 323 322 319 321 319 319 319 319 320 320 320 320 321 321 320 320 319 320 321 320 322 322 323 320 323 326 322 319 319 320 322 322 324 332 336 337 341 342 341 340 338 337 338 339 339 340 341 340 340 338 338 338 338 338 338 339 340 340 340 340 340 340 339 338 337 336 335 334 333 332 331 331 330 330 330 330 330 330 329 328 328 327 326 323 317 313 309 305 303
322 324 325 324 326 326 324 324 323 322 321 320 318 318 319 319 320 320 320 320 321 321 320 320 320 320 321 320 322 324 324 321 319 320 319 318 318 319 320 325 326 328 334 336 340 342 342 341 340 338 337 338 339 339 340 340 339 338 338 338 338 338 338 339 339 340 339 339 340 339 338 338 336 335 334 333 332 332 331 330 329 329 329 328 327 327 327 327 326 326 325 319 312 308 304 301 300
323 322 324 325 325 322 321 321 321 321 320 320 319 318 319 319 319 320 319 320 320 321 320 320 320 319 321 320 321 327 325 320 317 317 317 316 317 318 318 325 328 327 332 336 339 341 341 341 341 339 338 338 339 340 340 339 339 339 339 339 338 338 338 339 339 339 339 339 339 338 338 336 335 335 333 333 332 331 330 329 328 328 328 327 326 326 325 325 325 325 322 315 308 304 300 299 299
327 323 322 324 322 319 317 318 320 321 320 319 319 319 319 319 319 319 319 320 320 321 320 319 319 319 320 319 323 328 322 318 319 319 318 316 315 317 320 324 328 329 331 335 339 341 341 341 340 339 338 338 339 340 340 339 339 339 340 339 338 338 338 338 339 339 339 339 339 338 337 336 335 334 333 332 330 330 328 326 327 327 327 326 325 325 325 324 324 324 320 311 305 300 298 299 298
329 328 325 323 320 320 319 318 319 321 322 320 320 319 319 319 319 319 319 320 319 319 319 320 320 319 319 319 324 325 320 321 323 322 319 316 314 316 323 326 327 330 331 334 338 340 340 340 340 339 338 338 339 340 340 340 339 340 340 339 338 338 338 338 338 338 338 338 337 337 336 335 334 333 332 331 330 329 327 325 325 327 326 325 325 324 324 323 323 323 317 307 301 298 298 298 298
328 328 326 324 322 322 322 320 321 322 322 320 319 319 318 318 318 319 319 318 318 318 319 319 319 319 318 318 322 323 321 323 323 321 318 317 317 316 323 328 326 329 332 333 337 339 339 339 338 338 337 338 339 339 339 340 340 340 339 339 338 338 338 338 338 337 337 337 337 336 335 334 332 332 330 330 329 327 327 325 324 326 326 325 325 324 324 323 323 321 313 304 299 298 298 298 298
327 327 325 324 324 323 322 321 322 321 319 319 318 318 317 317 318 318 318 317 317 318 319 318 318 318 318 318 321 326 324 321 321 319 317 317 321 318 321 330 328 327 332 333 335 338 339 338 337 336 336 337 338 339 339 339 340 340 339 338 338 338 338 338 337 337 336 336 336 335 334 333 330 330 329 329 328 327 327 324 322 325 325 325 324 324 323 322 322 318 309 302 299 298 298 298 298
325 327 325 324 323 322 323 323 323 320 319 319 318 317 317 317 318 318 318 317 317 319 318 317 318 318 319 318 321 329 325 319 318 316 316 316 320 322 321 328 330 328 331 333 333 336 337 337 337 335 334 336 338 339 339 339 340 340 339 338 338 338 338 338 337 337 336 335 335 334 333 332 330 329 328 328 327 327 326 320 320 324 324 324 323 323 322 321 321 315 307 301 298 298 298 297 297
323 326 326 324 323 321 322 324 324 321 320 319 318 318 317 318 318 318 318 318 318 318 318 318 318 318 318 317 319 325 322 318 316 315 316 315 318 322 322 326 330 329 330 333 333 334 335 335 337 334 332 334 337 339 339 339 339 339 339 339 339 338 338 337 337 336 336 335 334 333 332 331 330 328 328 327 326 327 325 318 318 322 323 324 323 322 321 321 319 312 305 300 297 298 297 297 297
323 324 325 323 323 322 321 323 322 319 317 317 318 318 317 317 319 318 318 318 318 318 317 317 317 317 318 317 319 321 319 317 316 316 318 318 318 322 324 325 328 329 329 332 332 332 333 334 335 335 334 334 337 339 339 339 339 339 339 339 338 338 337 337 337 336 335 334 333 332 331 330 329 328 327 327 326 326 325 318 316 319 321 323 322 321 320 320 317 309 303 299 297 297 297 297 297
323 325 324 323 323 322 321 321 320 319 317 317 316 317 316 316 317 317 318 317 317 317 317 317 317 317 317 317 318 320 319 317 317 318 321 322 322 323 325 325 326 328 328 330 331 331 331 332 333 335 336 336 337 338 339 339 339 339 339 338 338 338 337 336 336 335 334 334 332 331 330 330 329 328 327 326 326 326 325 319 315 315 318 321 320 320 320 319 316 307 302 298 297 297 296 297 296
323 325 324 323 323 323 321 320 319 320 318 317 316 316 317 316 317 317 317 317 316 317 316 316 317 317 318 317 318 320 319 318 319 319 321 324 324 324 325 325 325 326 328 328 328 329 330 331 332 334 336 337 337 338 339 338 338 338 338 338 338 337 337 336 335 334 333 332 331 330 330 329 328 328 326 326 325 325 324 318 315 314 315 318 319 319 319 318 315 307 302 297 297 296 296 297 296
323 324 323 322 322 321 320 318 319 319 318 318 317 316 316 316 316 316 317 317 317 317 317 316 316 317 318 317 318 320 319 318 320 320 320 322 324 324 323 325 326 325 326 326 326 327 329 330 332 333 334 335 336 337 338 338 338 337 337 337 337 337 336 335 334 333 332 331 330 329 328 328 327 327 325 324 324 324 321 316 316 315 315 317 318 319 318 316 313 307 301 297 296 296 296 296 295
322 322 322 321 321 319 318 317 317 318 319 318 318 317 316 316 316 317 318 318 317 317 316 317 317 316 317 317 316 317 318 318 318 320 320 320 321 322 322 322 325 326 325 326 326 327 327 328 329 331 333 334 335 336 337 337 337 336 336 336 336 336 335 334 333 332 332 330 329 328 328 327 326 326 324 323 322 320 319 317 317 316 315 316 317 317 316 314 310 304 299 296 296 295 295 296 295
322 321 321 321 320 318 317 317 319 319 319 318 318 317 316 316 316 317 318 318 317 316 317 317 317 317 317 317 317 316 318 320 318 318 319 319 320 320 321 321 321 323 325 327 328 327 326 326 328 330 332 333 334 334 335 336 336 335 334 335 335 334 333 333 332 331 331 329 328 327 327 326 326 325 323 322 321 320 319 318 318 315 315 316 316 316 314 310 305 300 297 296 296 295 295 296 295
322 320 320 320 318 317 316 317 320 319 318 318 318 317 316 316 316 316 317 317 317 317 317 317 317 317 317 317 318 318 319 321 321 318 318 319 319 319 319 319 320 320 323 326 327 328 327 326 327 329 331 332 333 333 334 334 335 334 333 333 333 332 331 331 330 330 330 328 327 327 326 325 325 324 322 322 322 321 319 318 317 315 315 315 315 314 312 308 303 299 297 296 295 295 295 295 296
321 321 320 318 317 316 316 317 319 319 318 318 317 317 317 316 316 316 316 316 316 317 316 317 316 316 317 318 318 319 319 320 319 317 318 318 318 319 319 319 319 319 321 324 326 328 328 327 326 327 329 331 332 332 333 333 334 333 333 333 331 330 330 330 329 329 328 328 327 326 325 324 324 324 322 322 322 320 319 318 317 315 314 314 313 313 310 306 303 299 297 296 295 295 295 295 296
319 320 319 318 317 317 317 318 318 319 318 317 318 318 317 316 316 316 316 316 316 316 316 316 316 316 317 318 318 319 320 319 318 316 318 318 317 318 318 319 319 319 319 321 324 327 328 327 326 326 328 329 330 331 332 332 332 332 333 332 330 329 329 329 328 327 327 327 326 325 325 323 323 323 322 322 321 320 318 317 316 314 314 313 312 311 309 306 303 300 297 296 295 296 296 295 295
317 317 317 316 316 317 317 316 316 316 316 317 318 318 317 317 316 316 316 316 316 316 316 316 316 317 317 317 317 317 318 320 319 317 316 317 318 318 318 319 319 319 319 319 321 325 326 327 327 327 327 328 329 331 331 332 331 332 332 331 330 329 329 328 328 327 326 326 326 325 324 323 322 322 321 321 321 319 318 317 316 314 314 313 311 310 309 307 305 301 297 296 296 296 296 295 296
316 316 316 315 315 315 315 315 314 315 315 315 316 317 317 316 316 316 315 316 317 317 316 317 316 317 317 316 316 316 317 317 317 317 317 317 318 318 318 319 319 318 319 318 319 322 324 325 326 326 326 327 328 330 331 331 331 330 330 330 329 329 329 328 328 327 326 326 325 325 324 323 322 322 321 320 319 318 316 316 316 314 314 314 312 310 310 309 306 302 298 296 296 296 296 295 296
316 315 314 314 314 314 314 314 314 314 314 315 316 315 316 315 316 315 315 315 316 316 316 316 316 317 317 317 316 318 317 315 315 317 318 318 317 318 319 319 319 318 318 319 318 319 321 323 325 326 325 326 327 328 329 330 330 330 329 329 329 329 328 328 327 327 326 326 325 325 324 323 322 321 321 319 318 316 315 315 315 315 314 314 313 311 309 309 306 302 298 297 296 295 296 295 295
315 314 314 314 314 314 314 314 315 315 315 317 315 315 316 315 315 315 315 315 315 316 316 316 317 316 317 317 316 318 317 314 315 316 317 317 316 317 318 319 319 319 319 318 318 318 320 322 323 325 325 326 326 327 328 329 329 329 329 328 328 328 328 328 327 327 326 326 325 324 323 323 321 321 320 318 317 315 313 314 315 315 314 314 313 311 309 307 304 301 298 297 296 295 296 296 295
314 314 313 314 314 315 315 316 316 315 315 316 315 315 316 315 316 316 316 316 316 316 316 316 316 316 315 316 317 318 318 316 315 316 316 316 316 316 316 317 317 318 318 318 318 318 318 320 322 323 324 325 326 326 327 328 328 328 328 328 328 327 328 327 327 326 326 325 324 323 323 322 321 320 319 317 315 314 313 314 315 315 314 313 312 310 308 305 301 299 298 297 296 296 296 296 295
314 314 315 316 316 316 317 317 317 316 315 314 314 314 315 315 317 318 318 318 316 316 316 316 315 315 315 316 317 318 318 317 315 315 316 315 315 315 315 315 315 315 316 316 318 318 318 318 320 322 324 324 324 324 325 326 327 327 327 327 327 327 327 327 326 325 325 324 323 323 322 321 321 320 318 316 314 313 312 312 313 313 313 311 310 308 306 303 300 298 297 297 297 297 296 296 296
314 315 316 318 317 316 318 318 318 316 314 313 314 315 315 315 317 318 318 317 316 316 316 315 315 315 315 316 317 319 320 317 315 315 315 314 313 313 313 313 313 314 314 313 315 317 318 318 318 320 322 323 324 324 324 324 325 325 325 326 326 326 326 326 325 324 324 324 323 323 322 321 321 320 318 315 313 313 311 311 311 311 311 310 308 307 304 302 299 298 297 297 297 297 297 296 295
316 316 316 318 318 317 318 319 318 317 315 313 314 316 316 316 317 318 317 316 316 315 315 315 315 315 315 316 317 319 321 318 315 314 314 313 313 312 312 312 312 312 312 312 312 315 317 317 318 318 319 320 322 323 324 323 324 324 324 324 324 325 324 324 324 323 323 323 323 322 321 320 320 319 318 315 313 311 311 310 310 310 309 308 307 305 303 301 299 297 297 297 296 296 297 296 295
319 319 318 319 319 317 318 320 319 319 317 315 314 314 314 315 316 316 315 316 316 315 315 315 315 315 315 317 318 318 318 316 314 314 313 313 313 312 312 311 311 311 311 311 311 313 314 315 317 317 318 318 319 322 323 323 323 323 323 323 324 324 323 323 323 322 322 322 322 321 320 319 318 318 318 316 313 311 310 309 308 308 308 307 305 304 302 300 298 297 297 296 296 296 296 296 295
319 320 319 319 319 318 318 318 320 320 318 318 316 315 315 316 316 316 316 316 316 316 316 316 316 316 316 318 319 318 316 314 313 312 312 312 312 311 311 310 310 310 310 310 311 312 312 313 315 316 316 316 317 320 322 322 322 322 323 323 323 322 322 322 322 322 321 321 321 320 320 319 317 317 316 315 313 310 309 308 307 307 306 306 304 303 301 300 298 297 297 296 296 296 296 296 296
318 319 319 318 318 318 318 319 319 320 319 319 319 318 317 317 317 316 317 316 316 316 316 316 317 316 317 319 319 317 315 313 312 311 311 310 310 309 309 308 308 308 309 309 309 310 311 311 313 314 314 314 316 318 320 322 322 322 322 322 322 322 321 321 321 321 320 320 320 320 319 318 317 316 315 315 312 310 309 307 306 305 305 305 303 302 301 300 298 297 296 296 295 296 296 296 296
318 319 319 319 319 318 319 319 319 319 319 319 319 319 318 317 317 316 316 316 316 316 316 317 316 317 319 319 318 315 313 313 312 310 310 309 308 308 307 307 307 307 307 308 308 309 309 310 311 312 312 312 314 316 318 320 320 321 321 321 321 321 320 320 320 320 319 319 319 318 318 317 316 315 315 314 312 310 308 307 305 304 304 303 303 302 300 299 298 297 296 296 296 296 297 297 296
319 319 320 320 320 319 318 319 319 319 318 318 318 318 317 317 316 316 316 316 316 316 317 316 317 319 319 317 315 313 312 312 311 309 308 307 307 306 306 306 306 306 306 306 307 307 307 308 309 310 310 311 312 313 315 317 319 319 319 319 319 319 319 319 319 318 318 318 318 317 316 316 315 314 313 313 312 310 308 306 305 304 303 302 302 301 300 299 298 297 296 296 296 296 297 297 296
321 320 321 321 320 319 319 319 318 317 317 318 318 317 317 317 316 316 316 316 316 317 318 318 318 318 317 314 313 312 311 310 309 308 307 305 305 305 305 305 305 305 305 305 306 306 306 307 308 308 309 309 309 310 311 313 314 316 317 317 317 317 317 317 317 317 317 317 317 316 316 315 314 313 312 312 312 311 309 307 304 303 302 302 301 300 300 299 297 297 296 296 296 296 297 297 297
322 321 321 321 321 321 321 320 318 317 317 318 318 318 317 316 316 316 317 317 317 319 318 317 317 315 313 312 311 311 309 309 308 306 305 304 304 303 303 303 303 304 304 304 304 304 305 305 306 307 307 307 307 308 308 309 310 311 313 314 315 315 315 315 315 315 315 315 315 315 315 314 314 312 312 311 311 310 309 308 305 303 302 301 301 300 299 298 297 297 296 296 297 297 297 297 297
322 323 322 321 321 321 321 320 319 317 318 319 319 320 320 319 319 319 319 319 318 318 316 314 314 313 312 311 310 309 308 307 306 305 305 304 303 303 303 302 302 303 303 303 303 303 303 304 305 305 305 305 306 306 306 307 307 308 310 311 311 311 311 311 312 311 312 312 312 313 313 313 313 312 311 310 310 310 309 308 306 304 302 301 300 299 299 298 297 297 296 297 296 297 297 297 297
322 324 324 322 321 322 323 322 321 320 320 322 321 323 324 321 321 321 320 321 318 316 314 312 312 312 311 310 309 309 308 306 305 304 304 303 302 302 302 302 302 302 302 302 302 302 302 302 303 303 303 303 304 304 305 305 306 306 307 308 308 308 308 309 309 309 309 309 310 310 310 311 311 310 310 310 309 309 308 308 306 304 302 301 300 299 299 298 297 297 297 296 296 296 296 296 297
322 324 325 324 322 323 323 322 323 322 321 320 319 322 323 320 320 321 321 321 318 314 313 312 311 310 310 309 308 307 306 306 305 304 303 302 302 301 301 301 301 301 302 302 301 301 301 301 301 301 301 302 302 303 304 304 305 305 305 305 306 307 307 307 307 307 307 308 308 308 308 308 308 308 308 308 308 308 307 307 306 305 303 301 300 299 298 298 298 297 297 296 296 296 296 296 296
323 324 324 323 321 322 322 320 322 322 320 319 318 320 322 321 321 320 321 321 315 312 312 311 310 310 309 307 307 306 305 305 304 303 303 301 301 300 300 300 300 300 301 301 301 301 301 300 300 300 300 301 301 301 302 303 303 304 304 304 304 305 305 305 305 305 306 306 306 306 306 307 307 307 306 307 307 307 307 306 306 305 303 301 300 299 298 298 297 297 297 296 296 296 295 295 296
323 321 319 319 318 318 319 319 321 320 319 321 322 321 324 325 322 320 321 319 314 312 312 311 310 309 307 307 306 305 304 304 303 303 302 301 300 300 300 299 299 299 300 300 300 300 300 300 300 300 300 300 300 300 301 302 302 303 303 303 303 303 303 304 304 304 305 305 305 304 304 305 305 305 304 304 305 305 305 305 305 305 304 302 301 299 298 298 297 297 297 297 296 296 296 295 296
321 319 318 318 319 319 319 320 320 319 320 321 323 323 325 327 325 322 322 318 313 313 311 310 309 307 306 306 305 304 304 303 303 302 301 300 300 300 299 299 298 298 298 299 299 299 299 299 299 299 299 299 299 299 300 300 300 301 301 301 302 302 302 303 303 303 304 304 304 304 304 303 303 303 303 303 303 303 303 304 304 304 304 303 302 300 299 298 297 297 297 297 296 296 296 296 296
318 318 319 319 321 321 320 320 318 320 324 324 323 322 323 328 328 320 320 317 313 312 311 309 307 306 305 305 304 303 302 302 302 301 300 299 299 299 298 298 298 297 297 298 298 298 298 298 298 298 298 298 298 298 299 299 299 299 300 300 300 301 301 301 302 302 302 302 303 303 303 303 303 302 302 302 301 301 302 302 302 302 303 303 302 301 299 298 297 297 297 297 297 296 296 296 296
317 317 317 319 323 322 319 320 319 321 327 327 325 323 322 327 328 317 315 315 313 312 310 308 306 305 305 304 303 302 302 301 301 301 300 298 298 298 298 298 297 297 297 297 297 297 297 297 297 297 297 298 298 298 298 298 298 298 299 299 299 299 300 300 300 301 301 301 301 302 302 302 302 302 302 301 301 301 300 301 301 301 301 301 301 301 301 299 298 297 297 297 297 297 296 295 295
316 316 316 320 325 323 323 325 324 325 327 325 325 326 324 326 324 316 313 312 312 311 309 307 306 304 304 303 303 302 301 300 300 300 299 298 297 297 297 297 297 296 296 296 296 296 296 296 296 296 296 296 297 297 297 297 297 297 297 298 298 298 298 299 299 299 299 300 300 300 300 301 301 301 301 301 301 300 300 300 300 300 300 300 300 300 300 300 299 298 297 296 297 297 296 296 295
315 317 320 323 324 321 321 323 323 323 323 322 322 322 324 325 320 313 310 308 308 307 307 306 305 304 303 302 302 301 301 300 299 299 299 298 296 296 296 296 296 296 295 295 295 295 295 295 295 295 295 295 296 296 296 296 296 296 296 296 297 297 297 298 298 298 298 298 299 299 299 300 300 300 300 300 300 300 300 299 299 299 299 299 299 299 299 299 299 298 297 297 296 296 297 296 295
316 318 323 325 322 319 318 318 320 321 322 322 320 321 325 325 317 311 308 307 306 305 304 304 304 303 303 302 302 301 300 299 299 298 297 296 295 295 295 295 295 295 294 294 294 294 294 294 295 294 294 295 295 295 295 295 295 295 295 295 296 296 296 296 297 297 297 297 298 298 298 298 299 299 299 299 299 299 299 299 299 299 299 298 298 298 298 298 298 298 298 297 296 296 296 296 296
319 319 322 324 323 320 320 321 321 322 324 323 322 324 325 319 312 309 307 306 305 304 304 303 303 303 302 302 301 300 299 299 298 297 296 295 294 294 294 294 294 294 293 293 293 292 292 293 293 293 293 293 294 294 295 294 294 294 294 294 295 295 295 295 295 295 295 296 296 296 297 297 298 298 298 298 298 298 298 299 299 298 298 298 298 298 298 298 298 298 298 297 297 296 296 296 296
320 321 323 323 321 321 322 324 322 321 323 322 319 322 321 316 312 308 307 306 305 305 304 303 303 303 302 302 301 300 299 298 298 297 297 295 293 293 293 293 293 293 293 292 292 291 291 291 292 292 291 291 292 292 293 293 292 292 292 293 293 294 294 294 294 294 294 295 295 295 295 295 296 296 296 297 297 297 297 298 298 298 298 297 297 297 297 297 297 297 297 297 297 296 296 295 296
321 322 321 318 320 322 321 321 321 321 321 319 316 318 317 316 316 310 307 307 306 305 304 304 303 303 302 301 301 300 299 298 298 297 296 294 293 292 292 292 292 292 292 292 291 290 290 290 290 290 290 290 290 291 291 291 290 290 290 290 290 291 291 292 292 292 293 294 294 294 294 294 294 294 295 295 295 296 296 296 297 297 297 297 296 296 296 296 296 296 296 296 296 296 296 295 295
319 319 317 316 320 323 320 319 321 322 321 319 318 318 317 316 317 312 309 307 306 305 305 304 303 303 302 301 300 299 299 298 297 297 296 294 292 292 292 291 291 291 291 292 292 290 288 288 288 288 288 288 289 289 289 289 288 288 288 288 288 288 288 289 289 289 290 291 291 292 293 293 294 294 294 294 294 294 295 295 295 295 296 296 296 296 296 296 296 296 296 296 296 295 295 295 295
315 315 317 317 318 320 319 319 321 322 321 320 320 319 318 318 315 312 309 307 307 306 305 304 304 303 302 301 300 299 298 297 297 296 295 293 292 291 291 291 291 291 291 291 292 290 288 287 287 287 287 287 287 287 287 287 287 287 287 287 287 286 286 286 286 286 286 287 287 288 289 290 291 292 293 294 293 293 293 293 293 294 294 294 295 295 295 295 295 295 295 295 295 295 295 294 294
316 315 316 317 317 319 319 318 319 320 319 320 319 318 318 316 312 310 309 308 308 308 306 305 303 302 300 300 299 298 296 296 295 295 293 292 291 291 290 290 290 290 290 290 291 290 289 288 288 288 287 287 287 287 287 287 287 287 287 286 286 286 286 286 286 286 286 286 286 286 286 287 287 289 290 292 293 293 293 293 292 293 293 293 294 294 294 294 294 294 294 295 295 294 294 294 294
317 316 316 316 317 319 319 318 317 317 317 318 318 318 318 314 309 309 309 309 309 308 306 305 303 301 299 298 297 296 295 294 294 293 293 292 292 291 290 290 290 290 290 290 290 290 290 290 289 289 289 288 288 288 288 287 287 287 287 287 286 286 286 286 286 286 286 286 286 285 285 285 286 286 287 288 289 291 292 293 293 292 292 292 292 293 293 294 294 294 294 294 294 294 294 293 293
Wind_Speed
7 8 9 8 9 10 8 3 1 1 2 4 4 1 1 1 1 3 3 5 3 3 4 2 3 1 2 3 3 5 4 4 3 2 1 4 5 10 13 12 12 14 17 14 18 26 27 26 24 23 22 21 20 18 17 16 15 15 14 14 14 12 12 10 10 9 9 9 8 8 8 7 7 8 8 7 7 7 7 7 7 6 6 6 6 6 6 6 4 3 3 2 2 2 1 2 3
6 7 8 7 7 5 3 0 1 3 2 3 1 3 1 1 2 2 6 6 3 2 2 1 2 3 3 4 4 5 4 5 4 0 2 7 8 10 12 13 14 15 17 14 18 26 27 27 25 24 22 22 21 19 18 17 16 15 15 15 14 13 12 11 10 10 9 9 8 8 9 9 8 8 8 7 6 7 6 6 7 6 6 6 5 5 5 3 2 2 1 2 2 2 3 4 5
6 5 7 7 5 4 2 1 2 3 4 2 2 2 1 2 4 5 5 6 4 3 1 2 2 1 2 4 3 2 3 2 1 3 4 8 6 8 11 12 15 16 18 14 17 25 28 27 25 24 23 23 21 20 19 17 17 16 15 15 15 14 13 11 10 10 10 9 9 9 9 9 9 9 8 7 6 6 6 7 7 6 6 6 5 4 4 3 2 2 0 4 4 5 6 6 7
5 4 6 8 3 3 2 1 2 3 4 3 2 2 4 2 4 5 5 5 4 2 1 2 1 1 2 3 2 2 3 1 5 5 3 6 3 6 9 12 16 16 18 14 16 25 29 28 26 25 24 24 22 20 20 18 17 16 16 16 15 14 13 12 11 11 10 10 10 10 10 10 9 9 8 7 6 5 5 7 7 7 6 4 4 2 2 2 2 1 1 5 6 6 7 8 9
6 5 6 6 2 1 1 1 2 3 3 2 2 2 4 4 4 5 4 1 5 3 1 1 1 1 1 3 1 2 2 3 4 4 4 6 4 5 6 12 16 16 19 15 15 23 27 29 28 26 25 24 23 21 20 19 18 17 17 16 16 15 14 13 12 11 11 11 11 11 11 10 10 9 9 7 6 6 4 5 5 5 6 5 3 1 2 2 2 2 1 5 8 8 9 10 11
8 6 5 3 2 0 1 2 3 3 1 3 2 4 6 5 5 5 4 2 5 5 0 1 2 2 2 2 3 3 2 2 0 2 4 5 5 4 3 11 16 15 18 16 15 20 25 28 28 27 26 25 24 22 21 20 19 18 17 16 16 16 15 14 13 12 12 12 12 12 12 11 10 9 9 8 7 7 4 4 4 5 6 6 6 3 2 2 2 3 2 6 10 10 10 11 10
8 5 2 2 1 0 1 4 4 3 1 3 2 4 6 5 6 5 5 3 2 3 1 1 1 2 3 1 2 5 4 2 2 2 3 4 5 4 3 10 16 14 15 17 15 18 22 25 27 28 26 25 25 23 22 21 20 18 18 17 16 16 16 15 14 13 13 13 13 13 12 11 10 9 9 9 9 8 6 6 5 4 5 5 6 5 3 3 3 3 3 7 10 10 9 9 8
6 2 0 1 1 1 2 4 5 3 1 2 2 1 3 4 4 3 4 2 1 2 3 2 2 1 4 2 2 4 4 3 3 4 3 2 3 3 3 9 15 13 14 17 15 16 19 22 25 27 27 26 26 25 23 22 21 19 19 18 17 17 16 16 15 15 15 15 14 13 12 11 10 9 9 10 9 8 8 9 6 5 5 5 5 6 5 4 4 4 4 8 10 9 8 7 6
4 2 1 1 2 2 3 5 5 2 1 3 3 1 1 2 2 1 4 4 2 0 3 4 4 2 3 1 3 1 4 5 5 5 3 2 3 3 4 8 13 13 14 16 16 17 18 20 22 24 27 26 25 25 25 23 21 20 20 19 18 18 17 17 16 16 16 16 15 13 12 11 10 10 11 10 10 9 10 11 8 6 6 6 6 6 6 5 5 4 5 9 9 8 7 5 3
3 2 1 1 2 3 5 4 1 2 2 2 2 2 4 3 3 1 3 5 2 1 2 5 4 5 4 5 4 1 5 7 6 5 4 3 3 3 4 8 11 13 14 16 16 17 17 19 21 23 26 27 26 26 25 24 23 22 21 20 19 19 18 17 18 18 17 16 15 14 13 11 10 12 12 10 11 11 11 10 8 7 7 7 7 7 6 6 6 5 6 10 8 7 5 2 1
1 3 1 1 2 4 4 4 4 4 5 3 2 5 5 3 3 3 3 4 2 1 3 5 2 4 4 5 3 2 8 8 6 6 6 4 4 3 4 8 11 12 14 17 15 16 17 18 21 22 25 27 27 26 26 25 24 23 22 22 20 20 19 19 19 18 17 16 16 15 14 12 11 12 11 10 12 12 12 9 7 8 7 7 7 7 7 7 7 6 7 9 7 5 2 1 2
1 2 1 2 3 4 3 5 5 5 6 5 2 6 3 2 1 4 2 3 4 4 2 5 2 1 2 4 2 5 10 7 8 8 6 5 5 5 6 8 12 14 14 18 17 15 16 18 21 22 24 28 28 26 26 25 25 25 24 23 22 21 21 21 20 20 19 18 18 16 15 14 13 13 11 12 13 13 13 10 8 9 8 7 8 7 7 7 7 6 8 8 5 3 1 2 3
2 3 2 3 3 4 4 4 5 5 5 2 5 4 0 1 1 5 4 5 6 6 2 3 2 2 2 5 2 6 7 5 8 8 6 6 5 6 9 8 11 15 15 18 20 16 16 18 22 23 24 28 28 26 25 25 25 25 24 23 22 23 22 22 22 21 21 20 19 18 16 15 14 13 13 14 14 14 13 11 10 10 9 9 9 8 8 8 7 7 9 6 3 2 2 2 4
2 3 2 3 3 5 4 4 4 3 4 2 4 3 2 0 2 3 4 5 7 2 1 0 2 3 2 5 1 3 4 6 8 8 7 8 6 6 10 10 11 14 16 19 21 20 17 17 20 24 25 28 28 26 25 25 25 25 25 24 24 24 24 23 23 22 22 21 20 19 18 16 15 14 14 15 15 15 14 12 12 11 10 10 9 9 9 8 8 8 9 6 3 2 2 3 4
2 3 1 2 4 5 3 4 2 1 3 3 3 1 1 3 3 1 1 4 5 1 0 3 3 1 3 4 2 2 7 10 9 8 8 9 9 7 10 12 12 14 17 19 21 22 21 18 18 22 25 28 29 26 26 26 25 25 25 25 25 25 25 25 24 23 22 22 21 20 19 18 17 16 16 16 16 17 15 12 13 12 11 11 10 10 9 9 9 9 8 5 4 3 3 4 4
0 3 1 2 4 5 3 3 2 2 2 3 3 2 0 4 1 2 2 1 4 4 3 3 5 4 5 6 5 3 9 11 8 7 7 7 9 8 10 13 13 14 17 19 21 23 22 21 19 19 23 28 30 27 26 27 26 26 25 25 25 26 26 26 25 24 24 23 22 21 20 20 20 19 19 18 18 18 16 13 13 13 11 11 11 11 10 9 9 10 8 6 5 3 3 4 5
0 1 1 3 4 5 3 2 1 1 3 3 2 2 1 5 1 2 1 0 4 7 7 7 6 7 8 10 10 7 10 10 8 7 7 7 8 9 10 13 13 14 18 20 21 23 23 23 21 20 21 26 30 28 27 27 27 27 26 26 26 26 26 26 26 25 24 23 23 22 22 22 21 21 21 20 20 20 18 14 13 13 12 12 12 11 11 10 10 11 8 7 5 4 4 4 5
1 1 3 4 4 5 3 4 4 3 4 5 4 4 5 6 2 2 2 3 5 8 10 9 9 10 13 18 17 13 13 12 11 10 9 9 10 11 12 14 16 16 19 21 22 23 24 25 24 22 22 24 28 28 27 27 27 28 28 28 27 26 26 26 26 26 25 24 24 23 23 23 23 23 22 22 21 21 20 16 15 14 13 14 14 13 12 11 11 11 9 8 6 5 5 5 5
2 2 3 4 4 5 5 6 5 4 5 7 7 6 6 6 6 2 2 6 5 7 10 9 10 10 13 18 16 16 15 14 14 13 12 13 13 13 14 16 18 19 19 21 23 24 25 25 26 26 25 25 26 28 27 26 26 27 28 29 29 28 27 27 26 26 26 25 25 24 24 23 23 23 22 22 22 21 21 18 16 16 15 15 16 15 13 11 11 12 11 9 7 6 7 7 6
4 3 3 5 5 6 6 7 6 4 5 7 6 6 6 7 6 3 4 8 6 7 10 9 10 9 8 9 6 14 17 16 16 16 14 15 16 16 15 15 18 20 21 22 22 23 25 25 27 28 27 26 27 28 28 27 26 27 27 29 30 30 29 28 28 27 27 26 26 26 25 24 23 22 21 20 21 21 21 18 18 17 17 17 18 17 15 13 13 14 13 9 8 8 7 7 6
3 4 5 5 5 7 7 9 8 5 4 5 6 7 8 8 5 5 5 6 6 7 9 10 11 10 9 10 8 6 11 14 15 15 15 15 16 17 17 16 16 17 19 20 20 22 24 25 27 29 29 28 28 29 29 29 27 26 27 28 30 30 30 30 29 29 28 27 27 27 26 25 23 22 21 20 20 20 20 18 19 19 19 20 19 19 18 16 16 15 13 10 9 9 8 7 7
2 4 6 7 6 7 7 9 6 3 4 4 6 7 7 6 6 6 5 7 7 6 9 12 12 11 11 11 10 9 7 9 12 13 14 15 16 17 17 16 16 15 15 19 20 21 23 25 27 29 30 30 29 30 31 30 29 26 26 28 29 29 29 29 30 30 29 28 27 27 26 25 23 23 22 21 21 21 21 20 20 21 22 22 22 20 19 18 18 16 13 12 12 11 10 8 7
4 6 6 7 8 8 9 8 2 3 2 6 7 7 6 8 9 8 8 11 11 9 11 13 13 13 13 11 9 10 10 8 9 12 15 16 16 18 18 17 16 15 15 17 20 21 23 25 27 29 30 31 31 31 31 30 30 29 26 26 28 28 28 29 30 31 31 29 28 28 26 25 24 24 23 22 22 22 22 22 22 23 24 24 23 21 20 19 18 17 14 13 13 12 12 10 9
5 6 6 8 10 11 10 8 3 1 4 7 6 7 7 9 10 8 9 11 13 13 12 13 14 13 13 11 9 10 10 10 11 14 18 17 18 19 18 17 17 16 16 18 20 21 23 25 27 29 31 33 33 32 32 32 32 32 29 26 27 28 29 28 28 28 29 29 29 29 27 26 26 25 24 23 24 24 23 23 22 24 25 25 24 23 21 20 19 18 16 15 15 14 13 12 11
6 7 7 8 8 9 8 7 6 5 7 6 5 8 10 10 9 12 13 13 15 15 13 13 14 13 11 10 10 10 10 10 12 15 18 18 18 17 17 18 18 17 18 20 22 22 23 24 26 30 32 33 34 34 34 33 32 33 32 30 28 28 29 29 28 27 27 28 29 30 29 27 28 27 26 25 25 25 24 23 22 24 25 25 24 23 22 21 20 19 17 17 17 16 14 12 11
4 6 6 7 7 8 9 9 10 9 7 6 6 9 11 8 7 12 14 12 13 14 12 12 11 11 9 9 9 9 9 10 11 14 16 15 14 16 18 19 19 20 22 23 23 23 24 24 26 29 31 32 34 34 35 35 33 33 33 33 31 30 31 30 28 28 27 28 29 31 31 30 29 29 28 27 26 27 25 24 23 24 25 25 24 23 23 23 21 20 19 19 19 17 15 14 12
3 6 7 9 9 9 10 12 14 11 9 9 9 10 11 6 3 8 10 9 9 9 9 9 8 9 8 8 9 8 9 9 11 13 11 9 11 15 19 19 20 22 23 23 24 24 24 25 26 28 29 31 32 34 35 35 35 34 33 34 33 32 32 31 29 29 29 30 30 31 32 32 30 30 29 28 27 28 27 26 25 24 25 26 25 24 24 24 22 21 20 20 20 17 16 15 14
5 6 8 10 11 11 13 14 14 10 8 10 9 8 10 6 5 12 14 11 9 8 10 9 8 9 8 9 9 8 8 10 13 11 7 7 10 13 15 17 20 21 21 22 23 24 24 25 26 27 28 30 32 33 35 35 35 34 34 34 35 34 33 33 32 30 31 31 31 31 33 33 32 31 30 29 29 29 29 28 27 26 26 27 26 25 26 25 23 21 20 20 19 17 17 16 15
4 4 6 11 12 11 14 14 14 11 6 6 5 2 7 8 9 15 16 13 10 9 10 9 9 9 9 8 8 7 7 8 10 7 7 9 10 11 13 14 16 17 18 20 21 21 22 23 24 25 27 28 30 32 33 34 34 33 33 33 33 34 33 34 34 32 32 32 31 32 33 34 34 32 30 30 30 30 31 30 29 29 28 28 27 26 27 25 23 22 21 20 19 18 18 16 15
4 4 4 9 9 8 12 11 9 8 4 9 7 1 5 8 10 13 10 7 6 7 7 9 9 10 10 8 7 7 7 6 7 9 8 4 4 6 8 8 9 11 11 12 14 17 19 21 22 23 24 27 28 30 30 31 32 32 31 32 32 33 33 33 34 33 32 32 32 33 34 35 35 33 31 31 31 31 31 31 31 31 30 30 29 28 28 26 25 24 23 22 20 20 19 18 17
6 7 5 5 4 4 9 6 4 3 2 8 6 2 5 6 10 11 5 1 3 5 7 11 12 11 10 8 7 7 7 6 5 4 9 17 20 19 18 16 12 9 9 8 8 11 14 17 19 21 21 24 26 27 28 27 28 29 29 28 29 31 32 32 33 33 32 32 32 33 35 35 36 35 32 32 32 32 32 32 32 32 31 30 30 29 28 27 27 26 25 24 23 21 20 19 18
5 6 3 4 4 4 8 5 6 5 2 5 6 2 6 7 9 8 6 5 7 8 10 14 15 13 11 7 5 5 5 3 8 18 25 26 25 24 24 23 20 16 11 7 6 4 9 13 15 17 18 20 22 24 26 25 24 25 26 25 25 27 29 30 30 31 31 31 31 33 34 35 36 35 33 32 32 33 33 33 33 32 32 31 30 30 30 29 29 28 27 26 25 23 21 19 18
4 5 4 5 5 5 5 3 5 7 2 4 6 4 5 5 5 7 9 10 10 11 13 15 16 14 10 7 5 5 6 8 13 20 25 26 25 24 24 23 21 20 17 13 10 4 2 6 10 12 14 15 18 20 21 22 20 20 22 22 22 23 25 27 27 28 29 29 30 30 31 33 35 35 34 33 33 34 34 33 33 33 32 32 31 31 31 31 31 30 27 26 26 24 22 20 19
4 4 5 6 6 5 4 2 1 3 5 5 8 7 7 7 8 9 11 12 11 11 14 14 14 12 9 6 4 5 7 10 11 16 24 26 24 22 23 24 24 22 21 18 14 9 6 3 1 6 9 10 12 15 16 19 18 16 17 18 19 20 22 23 24 24 26 27 28 29 29 31 33 34 34 34 34 34 34 34 33 33 33 33 33 32 32 31 31 30 29 27 26 25 24 22 21
5 5 5 5 6 6 6 5 5 5 4 6 7 8 9 8 8 9 10 12 12 13 13 11 10 12 11 5 5 7 10 12 12 18 25 25 24 24 24 25 26 26 25 23 20 15 11 9 6 2 2 5 7 10 11 14 16 14 14 15 16 18 18 20 22 23 23 24 26 27 28 29 31 33 34 35 35 35 34 34 33 33 34 34 33 33 32 31 30 29 29 27 26 25 25 23 22
9 9 7 7 7 6 8 8 8 9 9 8 8 9 8 7 8 9 11 13 14 14 11 8 9 11 7 6 7 9 12 11 13 22 26 25 25 24 24 26 26 27 28 26 25 22 18 14 9 6 4 2 3 6 7 9 11 12 12 13 14 15 16 18 19 21 22 22 24 24 26 26 27 30 33 35 35 34 34 34 33 33 34 34 34 34 33 33 32 31 30 30 28 24 23 23 23
10 9 8 8 7 7 8 9 9 8 7 7 7 8 8 8 10 12 14 13 13 12 9 10 9 5 4 8 9 11 12 10 15 23 25 25 25 24 24 26 27 28 29 28 27 26 24 20 16 12 8 4 1 2 4 6 9 10 11 12 13 13 15 16 17 19 20 20 21 21 23 24 25 27 30 33 35 34 33 32 32 32 33 34 35 35 34 33 33 33 31 30 30 27 24 24 25
9 7 7 6 5 7 8 10 11 5 3 4 6 7 7 8 12 16 16 12 12 10 10 11 4 5 7 9 11 12 10 10 14 18 21 24 24 24 25 26 28 28 28 28 27 27 25 23 22 19 13 9 6 3 1 2 5 7 8 9 11 12 13 15 16 18 19 20 20 19 20 22 24 25 27 31 34 34 32 31 31 32 33 34 35 35 33 33 33 33 32 31 30 30 27 27 30
7 5 5 5 5 7 8 9 6 1 1 3 6 7 6 10 15 17 16 12 10 11 9 5 5 10 8 10 11 11 11 11 12 13 17 22 23 24 26 27 28 27 27 28 27 27 27 26 24 22 18 14 11 8 4 3 3 4 5 6 7 8 8 10 12 14 16 18 19 19 20 22 23 23 25 28 32 34 34 33 31 32 33 34 35 35 34 34 35 35 36 34 31 30 27 28 34
5 4 4 5 5 6 5 4 4 4 4 6 8 7 6 11 14 14 13 10 9 7 4 11 12 12 11 12 12 12 13 12 11 12 13 18 22 25 27 28 28 28 28 29 28 27 27 27 25 23 20 16 14 12 8 5 5 4 4 5 6 6 5 6 8 9 11 14 16 19 21 22 22 23 24 26 30 33 34 34 33 32 32 33 35 36 36 37 38 38 37 37 35 31 28 29 34
4 5 5 6 7 7 5 4 6 6 7 6 5 5 5 8 8 7 6 4 5 1 13 17 12 11 12 14 14 13 13 11 11 11 11 14 19 23 26 28 29 30 30 29 28 27 27 26 24 22 21 18 15 14 11 8 7 6 5 5 6 7 8 9 10 11 12 13 15 17 19 21 21 22 23 25 28 30 32 34 34 33 32 33 34 36 37 38 39 40 40 40 39 36 33 30 32
5 5 7 7 6 5 4 6 6 4 5 3 2 3 4 3 4 6 6 3 1 7 14 14 11 11 11 12 12 11 11 10 10 10 10 13 16 20 24 27 28 29 29 27 26 27 27 27 25 23 22 21 19 16 13 11 9 9 9 8 8 8 8 8 10 11 12 14 15 16 17 19 20 21 22 23 25 27 30 32 33 34 33 32 34 35 36 36 38 40 41 41 41 40 36 30 31
4 3 2 2 3 4 4 5 3 1 4 3 0 2 4 3 5 7 10 7 4 11 13 12 10 10 10 10 10 9 10 9 9 10 11 13 16 18 21 24 26 27 26 25 25 27 29 29 27 25 25 24 22 20 17 15 13 12 12 11 11 11 11 11 11 12 12 10 10 11 13 16 18 19 21 22 24 25 27 30 32 34 34 33 33 35 36 36 37 39 40 41 41 40 37 31 32
3 1 4 5 4 4 4 3 3 4 4 5 5 4 4 5 5 10 13 5 9 12 11 11 10 11 11 10 10 9 9 8 8 9 9 11 14 17 19 22 24 25 24 24 25 27 28 29 29 27 27 26 24 22 20 19 17 15 15 14 13 12 13 13 13 13 13 11 9 8 9 12 14 16 18 20 22 24 25 27 30 32 34 34 32 34 36 36 36 36 37 39 39 39 38 36 34
2 1 3 3 2 2 3 3 5 4 4 5 5 6 3 4 5 10 9 5 11 10 10 10 10 11 10 10 10 9 8 8 8 8 8 10 13 17 18 19 21 23 24 24 25 26 27 28 29 29 29 27 25 24 22 21 19 17 16 16 15 14 14 14 13 13 12 13 11 9 10 11 12 14 16 18 20 22 24 26 28 30 33 34 33 33 34 36 36 35 37 39 39 39 39 37 35
2 2 2 1 2 3 4 5 4 3 3 4 5 6 3 4 6 5 3 7 8 7 8 9 9 10 9 9 9 7 7 7 7 7 8 10 13 15 16 18 22 24 25 25 25 26 27 27 29 30 30 28 27 26 25 22 20 18 18 17 16 16 15 14 13 13 13 13 14 12 11 10 12 14 15 16 18 20 22 24 26 28 30 33 34 33 33 35 36 36 36 38 40 40 39 38 37
2 1 2 3 5 4 3 3 1 1 3 6 8 10 6 3 5 1 4 5 10 10 8 8 9 10 9 8 7 7 6 5 6 6 8 12 15 17 20 22 24 25 25 25 25 25 26 26 28 30 31 29 28 27 26 25 22 20 19 17 17 16 16 16 15 15 14 14 15 15 14 12 11 13 14 15 16 18 20 22 24 26 28 30 33 33 33 33 35 36 35 36 39 40 40 39 39
2 2 2 4 4 1 1 0 1 1 4 6 5 10 10 4 3 3 7 5 9 11 9 10 10 10 9 7 6 6 5 5 6 5 6 10 13 16 19 20 20 21 22 22 22 21 22 24 27 30 31 30 29 28 27 26 24 22 20 18 17 16 15 16 16 16 15 15 15 15 15 15 14 13 13 15 16 17 18 20 22 24 25 28 30 32 33 33 33 35 36 35 36 39 41 40 39
3 2 1 1 2 1 1 1 1 2 5 4 3 2 6 6 3 4 9 8 8 9 10 11 10 10 9 7 6 5 4 5 5 5 5 6 8 12 15 15 16 17 19 19 19 19 20 23 26 29 29 29 29 29 28 27 26 24 22 19 18 16 16 16 16 16 16 16 16 16 16 16 16 16 15 15 16 18 18 19 20 22 23 25 27 30 32 33 33 33 34 35 35 36 39 40 41
5 4 4 4 1 2 3 3 2 3 4 3 5 5 1 4 3 6 10 8 9 11 11 10 10 10 9 7 6 4 4 5 5 5 5 5 7 10 11 12 14 16 18 18 19 20 22 24 26 27 26 26 27 27 28 28 27 26 24 22 19 18 17 16 15 16 17 16 16 16 16 16 16 16 16 16 17 18 18 19 19 21 22 23 25 27 29 31 32 33 33 34 34 35 36 39 41
6 4 4 4 3 3 4 3 4 4 3 3 2 1 1 2 1 5 10 9 9 10 10 10 9 8 7 6 5 5 5 5 5 5 4 4 8 10 11 12 14 16 18 19 21 22 23 24 24 25 25 24 24 24 25 26 25 25 25 24 23 21 20 18 16 16 16 16 17 17 17 17 17 17 17 17 17 18 18 18 18 19 20 22 23 25 27 29 30 32 33 34 34 34 33 36 40
3 1 2 2 3 3 3 4 4 3 3 3 2 2 3 2 5 7 9 9 9 9 9 9 8 7 6 5 5 5 4 4 3 3 3 5 9 12 13 14 16 17 19 20 22 22 23 23 22 23 24 23 22 22 23 23 24 24 25 24 24 23 23 22 21 19 18 17 16 16 16 17 17 17 18 18 17 18 19 18 18 18 19 21 23 24 26 27 29 31 32 33 34 34 33 34 37
1 2 1 4 2 1 2 5 4 3 4 5 4 4 3 2 4 5 8 9 9 8 8 8 7 6 5 4 4 4 4 3 3 3 3 6 10 12 14 15 16 18 19 20 21 22 22 22 21 21 22 23 22 21 21 22 22 23 24 24 24 24 24 23 23 23 22 21 19 18 17 16 16 17 17 18 18 18 18 18 18 19 20 21 23 24 25 26 27 29 31 32 34 35 35 35 35
2 1 2 2 2 1 1 3 3 4 5 5 5 6 5 3 2 3 7 8 8 6 7 7 6 6 5 4 4 4 4 4 3 4 5 6 9 11 12 14 15 15 16 17 19 20 20 20 20 20 20 20 20 20 20 20 20 21 21 22 22 22 21 20 22 23 24 25 25 23 22 21 19 18 17 17 18 18 18 18 19 21 22 22 23 23 24 25 26 28 29 31 32 33 34 36 35
3 2 1 1 0 2 1 2 2 4 6 4 5 8 7 5 3 5 7 7 8 7 6 6 6 5 5 4 4 4 4 3 3 4 4 6 8 9 10 11 12 13 14 14 15 17 18 19 19 19 18 18 19 19 19 19 20 20 19 18 18 19 20 21 24 26 27 28 27 27 26 25 24 22 19 18 18 19 18 19 19 21 23 23 23 23 24 24 25 27 28 29 31 31 33 35 35
3 2 1 1 3 3 2 2 2 4 6 4 5 6 4 2 1 5 8 7 8 6 5 5 5 5 5 4 4 4 3 3 3 4 4 5 7 9 9 10 10 10 11 11 11 12 15 16 17 17 17 17 18 18 18 19 19 19 19 19 20 22 24 26 27 28 28 28 27 27 27 27 26 25 24 22 20 19 19 19 19 21 22 23 23 23 23 24 25 26 27 29 30 30 32 33 34
2 2 2 2 1 1 1 2 2 3 4 4 5 6 3 1 3 4 8 6 6 6 6 5 4 5 4 4 4 3 2 3 3 3 3 3 5 6 7 7 8 8 8 8 7 8 9 11 13 14 15 15 15 16 15 16 16 17 19 21 24 26 28 29 29 28 28 27 27 27 27 27 26 26 26 25 23 21 20 19 19 20 21 22 23 23 23 23 24 25 26 27 29 29 31 32 33
2 1 2 2 1 1 2 5 4 3 3 3 4 6 3 1 2 3 6 5 5 6 6 5 5 5 5 4 3 2 1 1 1 1 0 1 3 4 4 4 5 5 6 6 5 5 6 7 9 10 12 13 13 14 14 15 16 17 18 20 22 24 26 27 27 28 28 28 28 27 27 27 27 27 26 26 25 24 22 20 19 20 20 21 22 23 23 23 23 24 25 27 28 28 30 31 31
Wind_Direction
347 341 331 326 313 312 301 267 284 262 201 247 258 60 78 57 128 294 1 82 86 68 48 346 335 326 284 305 314 309 290 269 285 322 262 177 150 161 184 177 159 165 173 184 184 183 184 184 181 175 175 176 177 180 181 181 181 183 182 178 178 179 177 179 179 173 171 173 175 176 176 171 166 156 142 132 130 125 127 131 132 133 129 127 123 121 114 116 122 115 106 87 116 132 59 17 20
344 328 315 307 298 301 308 291 299 276 237 250 346 54 167 194 97 27 28 52 59 67 34 337 327 311 282 285 286 295 274 229 222 69 123 142 135 163 193 180 165 166 169 187 186 183 185 184 184 178 177 177 179 182 184 184 184 186 185 183 182 182 182 183 185 179 178 180 181 184 180 173 165 149 135 123 123 121 121 126 127 128 130 130 124 125 120 125 149 110 90 281 266 260 283 308 328
337 328 316 301 276 243 287 316 265 296 304 316 48 45 48 352 35 47 36 55 61 59 2 258 234 282 258 247 253 265 265 265 156 66 114 149 140 166 195 180 166 165 168 189 188 184 187 185 187 182 179 180 180 183 186 188 188 190 188 186 186 184 184 184 187 183 184 185 187 189 179 171 157 142 135 126 124 125 126 130 127 125 128 125 118 123 127 148 171 121 267 274 273 269 278 292 308
339 354 324 307 275 217 261 238 241 292 299 319 53 73 82 41 29 47 46 77 97 98 311 284 165 178 222 248 302 310 264 7 62 47 111 157 146 163 184 176 164 165 170 187 190 186 189 188 189 184 182 183 181 184 188 191 191 193 191 189 188 187 186 186 188 187 187 189 190 188 178 168 155 148 144 137 140 144 152 154 140 129 129 128 123 126 152 181 194 156 266 278 280 279 282 289 302
347 348 302 303 319 243 297 269 268 263 270 329 21 30 59 52 36 42 21 84 134 120 316 320 339 200 219 276 319 313 300 70 63 45 101 137 136 163 178 173 164 168 176 181 190 189 191 192 191 188 185 184 183 185 190 192 193 195 194 192 192 190 187 186 190 190 189 191 189 185 178 168 160 158 154 157 168 168 175 172 157 157 161 155 155 225 241 195 216 220 237 281 286 287 289 292 298
327 319 266 269 299 35 337 274 271 257 282 13 7 355 18 31 35 34 328 318 113 109 64 266 304 304 263 248 183 232 309 60 184 74 116 138 146 179 177 171 164 172 182 177 187 191 193 195 193 192 187 186 185 187 192 194 195 196 196 195 195 193 188 188 190 192 190 190 186 182 178 169 168 166 165 179 195 193 192 186 185 209 205 183 177 188 222 208 224 231 232 277 286 288 290 293 295
310 311 234 235 285 44 269 263 271 267 345 24 16 352 350 4 28 12 322 347 79 109 93 298 19 334 277 216 192 241 254 238 210 125 149 145 140 183 163 167 167 173 187 178 186 194 197 199 196 195 190 187 187 189 194 195 197 197 198 198 198 195 191 190 190 192 191 190 186 183 180 174 176 175 179 193 207 212 200 196 198 218 227 211 198 196 216 230 233 229 225 268 285 289 290 293 296
294 297 102 295 280 194 230 260 265 262 133 89 65 349 336 357 29 5 321 321 274 132 148 223 97 293 258 152 243 230 186 182 175 159 184 165 145 190 160 165 172 176 188 180 185 196 200 202 199 198 194 190 189 192 196 196 198 198 201 201 200 197 194 193 190 193 192 191 189 185 183 182 185 186 199 212 223 228 215 216 214 210 221 220 215 218 223 223 227 215 225 267 282 287 289 293 301
246 218 39 328 283 246 242 247 245 278 6 86 64 336 54 11 36 47 308 300 276 100 158 161 129 218 295 349 261 166 128 158 163 175 203 215 195 207 172 168 177 180 187 181 187 200 203 204 202 201 198 194 191 193 197 198 199 199 202 203 201 199 197 196 191 193 194 193 190 185 187 191 196 200 213 229 241 240 235 237 233 219 217 219 216 216 215 210 215 202 231 269 279 281 285 288 298
220 190 343 314 293 275 260 254 285 348 341 84 107 42 48 33 18 12 298 304 306 34 111 107 144 221 302 316 274 136 154 169 149 168 197 217 218 215 185 174 178 184 186 181 191 205 204 203 203 203 201 198 194 195 199 200 200 201 202 203 202 201 199 196 194 196 194 190 189 189 193 197 204 212 222 240 246 244 247 244 232 222 213 214 213 209 206 202 206 198 236 267 276 276 276 267 231
257 187 137 328 289 270 285 347 354 333 326 322 116 78 52 52 18 301 260 277 273 221 164 120 170 240 267 273 267 137 144 150 133 160 187 195 208 200 188 182 177 185 189 182 192 208 206 203 204 205 204 201 198 197 200 201 203 202 203 204 203 203 201 198 198 196 191 189 191 194 197 198 208 221 229 240 244 248 256 245 212 212 210 206 209 206 202 203 202 197 241 266 274 271 254 191 130
284 243 131 270 280 280 319 356 322 316 318 303 78 78 53 84 50 281 286 309 309 303 239 142 155 288 287 272 262 137 127 127 139 165 183 173 196 184 183 196 183 184 191 186 189 207 212 207 204 207 206 204 201 200 202 203 205 205 205 206 204 204 201 200 200 198 194 195 198 199 201 204 216 229 235 234 238 246 255 248 208 202 206 201 204 203 199 205 199 205 249 270 274 258 205 142 119
248 301 357 274 288 298 314 325 293 306 307 330 82 95 111 87 251 282 346 342 309 305 319 83 27 13 291 283 261 142 127 129 157 179 180 161 195 189 179 198 199 188 192 193 190 200 213 212 208 207 207 205 204 204 204 205 206 207 207 207 206 204 200 199 202 203 202 204 206 207 210 215 223 229 234 233 236 241 248 249 216 197 202 201 203 200 198 205 197 216 255 273 262 229 162 130 116
284 322 357 289 307 296 286 269 281 317 303 39 88 155 140 220 261 324 1 311 294 293 160 239 16 33 270 265 264 145 164 180 185 194 179 170 192 198 181 191 212 195 193 200 194 197 207 212 212 209 209 206 204 207 208 209 209 208 210 208 207 204 200 201 204 206 207 210 214 216 219 221 224 224 229 233 237 240 245 242 212 195 200 200 202 200 203 204 199 227 257 266 242 204 155 134 122
317 327 350 276 289 285 263 245 273 5 306 63 109 168 108 258 233 221 250 269 283 38 56 241 161 130 284 274 279 169 190 194 195 195 187 188 190 199 189 190 213 202 197 205 199 200 204 207 212 212 211 207 203 207 210 211 211 210 211 210 208 207 204 204 206 208 211 215 219 222 224 224 225 224 227 232 238 242 244 233 205 196 198 198 200 199 204 198 203 237 255 252 232 198 164 144 133
318 323 319 256 274 280 267 247 209 181 306 61 148 154 72 285 251 187 214 259 290 321 314 259 185 209 266 273 268 184 181 190 190 193 194 197 190 199 201 197 212 208 202 207 205 204 204 204 208 212 211 207 203 205 210 211 213 214 214 212 211 210 209 209 209 211 214 218 221 224 227 227 227 227 228 231 237 241 242 229 206 201 197 197 199 196 202 194 208 240 248 240 227 200 175 153 146
39 325 245 254 259 260 268 267 217 192 325 358 184 161 325 306 25 129 18 350 271 283 271 259 236 230 242 251 251 217 198 197 195 197 196 201 196 197 208 208 210 211 208 210 211 208 207 205 204 207 207 206 204 206 211 212 214 216 216 215 214 214 214 215 215 216 218 221 224 226 229 231 231 230 230 232 236 238 240 232 213 207 197 197 199 196 200 192 213 238 237 232 220 196 179 163 159
195 204 218 242 242 252 326 328 324 2 336 332 320 321 323 318 327 84 24 258 245 264 264 262 255 244 242 246 241 217 206 205 204 205 200 200 198 195 205 211 210 212 214 214 214 211 210 207 203 203 203 204 204 207 211 213 216 216 217 218 218 219 219 220 221 221 223 225 228 230 232 232 232 233 232 232 234 236 238 233 219 213 202 201 200 196 196 190 214 232 229 226 206 192 186 174 170
208 233 236 243 247 272 317 310 318 354 321 316 315 319 328 324 327 358 281 272 270 277 277 277 275 264 253 248 225 196 196 206 206 208 208 204 202 202 205 208 210 212 214 217 219 215 212 208 204 203 203 204 204 206 209 212 216 217 218 220 220 222 224 225 225 226 227 229 231 232 232 231 231 232 232 231 233 234 237 232 220 215 207 205 205 200 195 192 213 226 224 220 196 196 194 182 173
209 218 242 247 257 282 298 304 316 320 306 307 307 332 330 308 309 297 277 282 271 266 273 278 279 275 277 284 226 189 196 206 208 209 214 216 214 215 215 210 210 213 217 223 224 218 213 210 208 206 204 205 205 205 207 208 214 218 219 220 222 223 225 226 227 228 230 232 233 232 231 229 229 229 229 229 231 231 232 226 215 214 209 209 211 206 204 204 215 221 219 212 195 204 202 184 171
204 197 231 255 281 298 300 306 311 315 329 326 314 322 307 293 292 280 284 285 263 250 258 265 274 284 297 317 320 246 210 207 211 211 216 225 226 226 229 225 223 226 224 224 223 219 218 215 211 209 207 205 205 205 206 207 210 216 218 219 221 222 224 224 226 228 230 232 232 231 229 227 226 224 223 226 228 225 222 217 210 211 211 211 213 211 212 214 217 219 217 208 201 208 207 190 175
243 236 243 259 277 284 280 291 313 12 354 319 295 292 293 300 294 276 267 263 256 249 257 266 274 286 290 294 304 298 266 224 212 211 217 225 232 235 238 239 238 238 226 215 217 221 221 218 213 211 209 206 207 206 207 208 209 214 217 216 216 219 223 225 226 227 228 228 227 228 226 222 222 220 218 222 223 219 217 216 211 210 211 212 215 215 217 219 220 221 215 207 208 209 206 197 183
226 251 254 262 270 274 280 293 334 86 320 287 278 284 300 300 287 270 254 256 260 259 262 270 270 271 275 278 283 283 277 256 224 214 219 225 233 237 239 240 238 236 225 213 215 220 221 219 216 212 209 207 208 207 207 208 208 212 215 213 213 218 224 227 227 226 224 224 223 223 223 217 215 215 214 218 220 217 215 216 212 210 211 214 215 216 219 221 223 222 213 208 212 209 205 201 192
226 251 268 276 278 277 280 291 291 171 267 269 274 290 285 278 282 276 257 258 267 267 264 269 273 273 272 271 266 264 263 262 249 234 230 233 238 241 242 239 236 234 225 219 218 217 219 220 217 213 210 208 207 207 207 208 209 210 212 212 216 219 220 221 222 222 220 220 220 219 219 212 209 210 210 216 217 212 213 215 213 210 211 215 216 216 219 222 222 221 213 207 211 210 208 205 199
248 258 270 271 271 280 287 292 284 267 266 260 260 274 266 261 276 280 270 263 265 266 265 263 266 271 267 262 259 256 252 252 255 250 243 241 242 242 240 238 233 228 224 224 221 216 220 222 216 213 212 210 207 207 207 208 209 210 212 214 218 217 214 216 218 219 218 217 216 214 214 209 205 207 207 213 213 209 210 213 213 210 210 215 216 213 216 221 219 218 213 207 211 213 210 207 205
259 279 298 301 299 304 304 296 283 271 265 251 240 257 261 261 276 277 267 257 256 256 256 255 258 261 259 261 261 259 256 246 244 250 250 246 241 233 230 233 229 226 228 227 224 219 220 221 217 215 214 212 209 207 207 208 208 209 212 212 214 214 213 216 217 218 217 214 214 212 212 209 206 206 206 211 212 206 206 209 211 209 208 213 217 211 212 219 218 214 212 209 213 214 210 209 208
333 325 317 310 302 294 283 274 271 264 259 248 239 255 263 260 266 273 264 252 255 261 264 262 258 257 254 258 263 265 265 260 252 249 251 245 229 226 225 227 229 232 233 228 227 225 221 220 219 218 217 215 211 209 208 208 208 209 211 210 211 213 214 215 215 216 214 213 213 211 211 210 207 206 205 209 212 206 204 207 209 207 207 211 216 210 209 217 217 213 213 212 214 213 210 210 211
359 343 318 296 286 280 270 264 262 256 246 233 224 252 273 270 239 253 263 265 265 272 278 274 266 261 256 257 261 262 260 269 270 251 230 232 230 233 230 227 233 239 238 236 235 230 224 221 220 219 218 216 213 211 210 209 209 210 210 211 211 212 212 212 212 213 212 212 212 211 211 210 208 208 206 208 211 207 203 205 205 205 206 209 213 210 210 215 215 213 214 214 213 211 210 210 212
349 342 306 284 280 272 265 259 253 248 225 172 160 247 275 261 240 245 254 259 261 257 264 269 265 265 264 266 270 271 265 267 274 253 228 240 244 248 246 240 243 246 247 248 244 234 228 224 221 221 219 217 215 214 213 212 212 211 211 212 211 209 210 211 210 210 210 211 211 211 211 211 210 210 207 209 211 207 204 204 204 204 205 208 211 210 210 212 211 210 211 211 208 207 209 208 208
280 261 255 277 287 274 267 259 238 237 189 125 117 171 248 255 258 260 257 249 266 270 276 280 271 270 273 275 277 277 280 270 265 263 259 283 337 320 300 286 268 261 264 259 245 238 235 228 223 221 219 218 218 217 216 215 214 214 214 214 212 210 210 210 209 210 210 210 211 211 212 212 212 211 209 210 211 208 206 205 205 205 206 209 210 210 210 209 207 208 208 206 203 205 208 206 206
265 261 241 252 276 271 274 270 155 164 181 135 126 218 246 266 273 278 282 233 300 296 288 283 277 276 275 276 276 269 270 258 257 317 25 36 29 19 10 2 350 323 298 278 259 242 235 231 225 221 219 219 220 219 217 218 217 216 217 217 216 213 213 212 211 211 212 212 213 214 213 213 213 213 210 210 210 209 208 207 208 207 207 209 210 211 210 207 207 209 208 204 199 202 208 206 204
253 265 260 228 235 257 277 276 159 169 241 157 135 210 244 247 265 293 328 333 315 300 285 283 281 281 284 291 300 300 302 336 46 48 46 39 30 23 17 12 10 5 353 335 320 263 224 228 227 222 222 222 222 222 219 220 220 219 219 219 219 218 216 215 214 214 215 215 217 218 217 215 215 213 210 210 211 211 211 210 210 210 209 210 211 212 211 209 208 209 210 207 202 200 204 204 201
235 236 256 248 241 252 274 280 181 169 128 184 192 225 251 247 275 306 311 299 292 285 278 276 277 281 289 297 314 337 360 33 50 51 46 40 33 28 22 19 19 19 18 16 9 5 208 225 229 224 229 229 226 225 221 220 222 221 220 221 222 221 219 217 216 217 217 218 219 221 220 218 217 215 212 214 215 214 213 213 212 211 211 212 212 213 212 211 210 210 209 208 207 203 203 201 196
241 233 246 249 251 272 285 310 218 150 133 210 221 224 245 252 264 273 272 271 268 264 265 267 276 285 286 296 340 18 46 50 47 46 43 39 35 32 29 28 29 29 27 26 26 30 39 30 257 219 231 236 230 228 225 222 223 223 223 223 225 225 224 221 218 220 219 220 221 223 224 222 221 219 216 217 218 217 216 215 214 213 213 212 213 214 213 211 211 211 208 206 209 206 204 200 194
261 266 273 277 278 295 294 291 315 317 266 253 251 245 252 260 271 277 274 275 270 263 265 274 287 287 289 332 41 59 67 60 49 46 42 38 34 32 33 34 36 37 35 34 35 37 36 35 41 59 248 249 232 228 228 222 220 222 222 223 227 228 229 226 223 224 223 223 224 225 227 228 226 223 220 218 218 218 217 216 215 214 214 213 213 214 211 209 208 210 210 206 205 207 209 204 197
259 267 274 282 282 285 284 281 289 294 282 274 274 274 285 296 295 290 278 274 269 269 279 288 284 285 307 46 72 68 68 65 58 52 45 39 36 35 36 39 42 42 41 40 40 40 38 36 37 37 21 330 234 220 219 215 214 219 222 224 228 228 229 231 228 228 228 228 229 229 230 232 230 227 224 221 220 220 218 217 216 215 215 213 213 213 210 208 208 208 209 207 201 201 207 205 199
260 268 269 271 279 281 283 286 283 285 281 275 281 291 302 306 294 280 270 269 273 279 283 272 275 306 46 78 79 71 71 67 60 55 47 39 36 36 37 39 42 43 43 42 42 40 39 39 38 37 36 33 35 203 210 212 213 220 225 227 231 233 232 233 234 232 231 232 234 233 233 235 234 231 227 224 223 222 221 219 218 217 216 214 214 215 213 211 210 210 209 207 202 196 196 199 199
277 283 287 286 285 280 281 283 285 296 292 281 296 297 296 295 283 275 274 278 280 275 262 261 282 65 77 77 73 72 70 59 54 49 42 38 33 33 35 37 39 39 39 41 43 41 41 43 41 39 40 42 37 24 334 230 228 231 236 238 242 245 244 244 245 243 240 238 238 237 238 238 237 234 230 228 226 225 223 222 220 220 218 215 215 216 215 212 210 209 206 204 202 199 196 196 196
280 287 296 292 278 281 280 274 281 10 78 292 299 290 285 280 272 272 276 277 271 262 261 286 64 77 68 68 70 66 61 52 46 41 37 36 32 34 37 36 36 36 36 38 41 41 42 44 43 41 41 41 38 31 16 357 328 274 260 262 259 255 253 253 252 250 247 244 243 242 243 242 240 237 234 231 229 227 226 224 223 223 222 218 215 214 213 211 210 209 207 204 199 198 199 198 199
253 256 274 272 266 272 272 279 329 354 312 285 286 284 278 273 269 272 271 258 257 262 61 64 71 74 65 67 64 56 56 50 43 39 33 32 31 33 37 37 35 34 33 34 36 38 39 42 44 44 40 36 38 39 32 6 347 328 290 273 272 268 261 260 255 250 248 247 245 244 245 245 244 242 239 235 232 231 228 227 225 226 225 222 217 215 212 210 210 208 207 206 199 194 195 198 201
252 234 238 253 258 258 263 312 339 328 301 284 294 295 260 257 267 286 284 240 252 311 84 80 76 79 74 71 64 59 57 48 45 41 32 31 30 30 33 37 37 34 31 30 32 36 39 42 46 46 41 33 32 38 36 24 6 355 332 301 291 285 278 273 270 269 262 255 253 249 246 247 247 246 244 240 237 234 232 230 228 228 229 226 221 219 216 213 212 210 208 207 203 199 197 196 199
270 243 235 249 269 282 300 335 345 332 299 284 25 339 255 257 300 306 294 249 297 62 83 83 77 74 69 69 68 66 63 53 46 40 36 36 33 34 34 35 38 35 30 29 32 38 41 44 46 45 40 34 32 33 34 32 26 16 2 345 336 326 312 298 291 291 281 267 263 259 253 252 252 250 248 245 242 238 236 233 230 229 230 230 225 223 222 218 215 214 211 209 207 207 202 196 197
263 252 268 293 331 337 332 343 342 289 268 256 311 301 257 272 286 274 264 241 104 76 78 78 74 70 64 65 63 61 64 62 54 43 36 32 30 35 36 34 37 37 32 28 31 38 43 45 46 44 40 35 32 32 33 33 28 20 15 6 355 346 340 334 328 324 316 300 283 271 263 259 257 256 253 250 247 244 241 237 234 232 231 233 230 226 224 222 221 218 215 212 211 210 206 199 200
247 283 20 16 11 348 331 328 271 247 273 270 238 226 255 269 247 246 251 223 99 86 83 81 80 77 73 71 63 57 54 53 58 54 42 33 28 31 35 35 37 39 37 31 30 35 41 44 47 47 44 39 34 33 36 36 30 23 18 13 5 359 353 346 341 336 332 329 317 295 282 271 265 263 260 257 254 251 247 242 239 235 233 234 234 230 227 226 226 223 220 217 215 213 210 207 206
219 91 55 35 17 323 286 264 253 264 300 283 214 185 238 275 247 241 236 132 96 97 96 90 85 80 77 76 71 64 54 47 48 51 47 42 35 34 36 38 38 39 38 35 32 34 38 42 47 49 47 43 39 39 41 40 36 29 22 15 9 4 358 351 347 343 339 337 330 312 293 281 274 272 270 266 262 257 254 249 245 241 237 236 236 235 232 228 228 227 224 221 218 217 215 213 212
187 106 65 358 242 238 248 243 256 291 287 263 208 176 200 280 272 250 166 116 114 116 103 93 85 79 72 68 70 65 60 54 48 47 42 41 40 39 39 38 38 38 37 35 34 33 35 38 43 47 46 44 42 43 46 44 40 35 27 20 14 8 2 357 354 352 348 343 339 333 316 295 282 278 277 274 269 265 261 256 252 247 244 241 239 238 236 232 230 230 229 226 222 221 219 217 218
153 81 7 306 257 227 220 224 236 322 269 253 221 193 180 297 300 357 63 118 139 131 118 110 97 89 80 67 61 56 52 49 47 46 38 35 36 35 36 35 34 35 35 34 31 30 32 33 39 44 44 42 42 43 46 45 43 40 33 26 19 12 6 2 360 358 355 350 344 341 334 322 305 290 283 278 276 274 269 263 259 255 251 248 244 242 240 237 234 232 233 232 227 224 223 222 222
89 74 21 337 299 211 134 162 99 140 255 274 244 187 177 213 279 62 46 57 123 132 132 123 108 97 92 79 69 60 51 49 45 38 30 30 31 31 33 33 31 31 32 31 28 27 29 31 36 41 41 39 39 40 43 44 44 43 38 32 24 16 10 6 3 360 357 355 350 344 340 336 329 315 298 286 280 279 276 271 266 262 258 254 251 248 245 243 241 237 235 234 231 227 225 224 224
112 126 116 3 310 279 164 203 163 208 235 276 2 107 178 223 278 62 64 49 72 101 110 112 108 101 95 89 84 75 63 63 55 42 30 23 26 29 31 31 29 29 29 28 25 23 26 30 33 36 36 36 36 37 38 40 40 40 38 34 27 22 18 13 7 1 357 354 351 346 343 340 336 331 321 307 297 289 280 276 273 270 267 264 259 255 251 247 246 242 239 238 236 232 228 226 227
157 166 159 163 229 271 256 239 235 245 242 277 8 24 282 239 296 60 82 73 65 79 88 94 100 100 98 100 97 90 76 65 58 51 37 20 26 31 32 31 29 27 27 25 23 21 24 28 30 31 31 30 32 33 34 35 35 35 36 35 32 28 23 19 11 2 356 353 350 346 343 339 334 331 326 320 317 308 291 280 279 277 275 274 269 263 258 253 250 247 244 242 241 239 234 230 230
189 195 163 175 198 220 247 252 246 253 271 297 342 31 261 219 156 92 95 91 81 84 88 90 92 94 100 102 96 83 67 54 51 52 44 33 33 32 31 30 28 26 24 24 22 21 23 26 28 29 28 26 26 27 28 29 30 30 32 33 33 33 30 27 21 11 3 358 355 350 345 341 336 330 323 317 316 316 307 291 282 281 281 280 276 270 265 260 255 251 249 246 245 244 242 237 234
218 169 97 217 216 199 249 263 247 254 292 285 233 224 264 84 92 97 98 94 90 92 93 94 95 97 98 93 87 83 75 67 59 52 39 32 31 30 28 25 25 25 24 23 23 22 23 25 27 28 27 26 27 26 25 24 26 28 29 29 30 31 31 30 28 24 19 12 3 357 349 342 337 331 326 321 316 314 313 302 288 285 288 286 282 276 270 265 261 256 253 250 247 246 245 243 240
37 61 162 237 231 158 261 278 268 261 272 261 239 256 264 107 93 100 102 96 96 98 97 101 104 105 104 101 104 108 108 107 86 66 55 40 32 27 24 23 22 22 22 23 23 24 25 25 27 27 25 26 29 29 27 24 25 26 27 29 29 30 29 28 28 28 27 25 20 12 1 350 342 335 327 324 319 315 315 309 295 290 292 291 287 281 276 271 266 261 257 254 252 249 248 247 245
108 178 228 280 338 23 234 262 267 252 257 255 245 260 258 225 224 143 117 104 106 114 113 117 120 116 114 111 112 110 104 100 77 63 61 54 43 29 23 21 20 19 19 20 22 25 28 28 29 27 24 24 25 28 29 26 25 26 26 27 28 29 30 30 31 30 29 29 26 22 15 6 358 349 337 328 322 316 314 311 304 298 296 294 291 286 280 275 270 266 261 258 256 253 251 250 248
123 194 223 91 294 294 249 227 233 240 252 253 242 254 254 241 222 145 133 122 122 129 125 125 128 126 125 121 117 109 96 81 58 52 44 43 39 27 19 12 10 12 14 17 21 25 32 35 34 33 31 28 26 26 27 24 23 23 23 23 23 26 30 32 33 31 30 29 25 21 18 14 10 4 355 344 334 325 319 315 310 306 302 298 294 289 284 279 273 269 265 262 260 256 254 253 251
56 32 336 170 191 215 222 231 225 232 250 256 248 254 253 273 330 121 132 134 134 137 129 127 128 123 124 122 120 113 98 80 54 49 39 28 22 14 11 5 4 8 10 15 20 22 31 36 37 38 37 35 33 29 26 23 20 17 15 16 17 19 23 26 27 27 27 26 23 20 18 15 13 11 6 358 348 340 332 325 319 313 308 304 300 294 288 283 277 272 268 265 263 260 257 255 254
52 19 279 230 210 222 236 261 233 214 245 255 254 256 242 309 353 105 126 130 133 135 137 143 142 130 123 119 120 111 89 78 58 56 46 22 7 358 359 2 8 16 19 25 25 20 24 28 30 32 30 30 30 27 25 20 16 13 11 12 13 15 16 17 18 18 18 18 17 16 14 12 11 10 9 5 360 353 344 336 328 321 315 310 305 299 293 287 280 275 271 268 266 263 260 258 257
90 82 258 266 308 326 276 262 234 208 243 244 250 263 251 277 333 85 112 122 123 129 143 152 150 139 132 127 125 126 116 83 65 78 243 277 285 297 315 334 344 357 9 15 14 7 3 2 4 8 11 14 13 12 13 10 9 9 8 9 10 11 11 10 10 10 8 7 7 7 6 5 5 6 5 4 2 359 355 348 339 331 324 317 312 305 299 291 284 279 275 272 269 265 262 260 259